Location: Writing-on-Stone Provincial Park
(49.0825°N, 111.6163°W)
Time: 17:55:10
(UTC-06:00)

Amateur Radio Satellites - All Passes

Search period start: 30 September 2014 17:25
Search period end: 01 October 2014 17:25
Location: Writing-on-Stone Provincial Park, 49.0825°N, 111.6163°W

Satellite Date Start Highest point End Downlink Frequencies (MHz)
Time Altitude Azimuth
KITSAT 1 30 Sep 17:39:52 17:47:24 45° 113° (ESE) 17:54:57 435.175 FM
Uosat F 30 Sep 17:45:30 17:49:56 32° 264° (W) 17:54:25 435.120 FM
OPAL 30 Sep 17:46:59 17:51:23 28° 96° (E) 17:55:41 ?
Sapphire 30 Sep 17:56:06 18:00:59 32° 40° (NE) 18:05:50 437.095 MHz 1200 baud AX-25 AFSK
SO-67 30 Sep 18:20:00 18:21:11 11° 61° (ENE) 18:22:21 435.3500 MHz FM
PCSat 30 Sep 18:21:41 18:26:57 47° 46° (NE) 18:32:10 145.825 MHz
Saudisat 1A 30 Sep 18:24:40 18:26:49 13° 344° (NNW) 18:28:58 436.775 MHz
AO-7 30 Sep 18:41:24 18:47:06 20° 272° (W) 18:52:50 29.400 - 29.500 MHz
STRAND 1 30 Sep 18:49:47 18:51:10 11° 85° (E) 18:52:32 ?
JAS-2 30 Sep 18:50:54 18:55:54 49° 262° (W) 19:01:14 435.800 - 435.900 CW/SSB, 435.910 FM
Hamsat 30 Sep 18:54:23 18:58:32 44° 262° (W) 19:02:41 145.90 MHz
OPAL 30 Sep 19:25:33 19:30:28 47° 295° (WNW) 19:35:17 ?
KITSAT 1 30 Sep 19:34:44 19:42:41 57° 316° (NW) 19:50:40 435.175 FM
Sapphire 30 Sep 19:39:24 19:44:45 59° 241° (WSW) 19:50:04 437.095 MHz 1200 baud AX-25 AFSK
HO-68 30 Sep 19:42:35 19:48:10 26° 51° (NE) 19:53:46 435.675 MHz FM
SO-67 30 Sep 19:50:17 19:53:42 65° 259° (WSW) 19:57:10 435.3500 MHz FM
SO-50 30 Sep 19:52:21 19:56:14 29° 117° (ESE) 20:00:13 436.795 FM
PCSat 30 Sep 20:05:21 20:10:16 36° 247° (WSW) 20:15:10 145.825 MHz
Saudisat 1A 30 Sep 20:06:46 20:08:18 12° 9° (N) 20:09:51 436.775 MHz
STRAND 1 30 Sep 20:26:05 20:31:16 74° 104° (ESE) 20:36:24 ?
Oscar 11 30 Sep 21:11:09 21:14:36 23° 63° (ENE) 21:18:03 145.825 FM, Beacon 2401.500 USB
HO-68 30 Sep 21:27:57 21:35:07 85° 252° (WSW) 21:42:21 435.675 MHz FM
SO-50 30 Sep 21:32:13 21:36:37 48° 317° (NW) 21:41:09 436.795 FM
KITSAT 1 30 Sep 21:33:18 21:39:57 27° 343° (NNW) 21:46:36 435.175 FM
FUNcube-1 30 Sep 21:34:40 21:37:56 20° 60° (ENE) 21:41:13 145.950 - 145.970 MHz USB
UKube-1 30 Sep 21:39:19 21:43:33 54° 70° (ENE) 21:47:48 145.840 MHz, 145.915 MHz
Saudisat 1A 30 Sep 21:45:44 21:49:25 25° 33° (NNE) 21:53:04 436.775 MHz
UOSAT-12 30 Sep 22:01:34 22:06:00 47° 121° (ESE) 22:10:32 437.025 FM, 437.400 FM
AO-40 30 Sep 22:04:36 00:35:03 24° 202° (SSW) 04:38:14 Beacon 2401.320
STRAND 1 30 Sep 22:06:17 22:09:55 20° 303° (WNW) 22:13:33 ?
ZACube-1 30 Sep 22:18:24 22:22:45 45° 69° (ENE) 22:27:11 437.345 MHz
ISS 30 Sep 22:39:49 22:41:45 15° 137° (SE) 22:43:40 145.800 FM
Oscar 11 30 Sep 22:46:22 22:50:33 45° 261° (W) 22:54:46 145.825 FM, Beacon 2401.500 USB
FUNcube-1 30 Sep 23:09:22 23:13:53 62° 259° (W) 23:18:29 145.950 - 145.970 MHz USB
SO-50 30 Sep 23:15:22 23:18:18 16° 340° (NNW) 23:21:17 436.795 FM
UKube-1 30 Sep 23:17:03 23:20:04 18° 269° (W) 23:23:07 145.840 MHz, 145.915 MHz
HO-68 30 Sep 23:19:07 23:23:52 19° 273° (W) 23:28:40 435.675 MHz FM
Saudisat 1A 30 Sep 23:25:00 23:29:26 72° 234° (SW) 23:33:49 436.775 MHz
KITSAT 1 30 Sep 23:31:49 23:38:18 25° 13° (NNE) 23:44:46 435.175 FM
UOSAT-12 30 Sep 23:42:00 23:46:19 35° 322° (NW) 23:50:41 437.025 FM, 437.400 FM
ZACube-1 30 Sep 23:55:40 23:59:22 24° 268° (W) 00:03:07 437.345 MHz
ISS 01 Oct 00:14:39 00:17:57 67° 155° (SSE) 00:21:16 145.800 FM
SO-50 01 Oct 00:58:46 01:00:47 13° 5° (N) 01:02:50 436.795 FM
Saudisat 1A 01 Oct 01:07:33 01:08:12 10° 252° (WSW) 01:08:50 436.775 MHz
RS-15 01 Oct 01:17:32 01:23:39 17° 96° (E) 01:29:42 29.354 - 29.394 USB, Beacon 29.352 USB
UOSAT-12 01 Oct 01:25:13 01:27:50 14° 345° (NNW) 01:30:27 437.025 FM, 437.400 FM
KITSAT 1 01 Oct 01:27:59 01:35:49 50° 40° (NE) 01:43:37 435.175 FM
ISS 01 Oct 01:51:28 01:54:45 54° 355° (N) 01:58:02 145.800 FM
Oscar 19 01 Oct 01:57:44 02:01:19 19° 89° (E) 02:04:51 437.125 CW, 437.150 USB
ITAMSAT 1 01 Oct 02:11:26 02:12:17 10° 84° (E) 02:13:09 435.822 SSB
Uribyol 2 01 Oct 02:11:38 02:13:17 11° 85° (E) 02:14:56 436.500 FM
Oscar 16 01 Oct 02:37:57 02:42:51 41° 98° (E) 02:47:41 437.025 USB, Beacon 2401.1428
SO-50 01 Oct 02:39:15 02:43:03 23° 29° (NNE) 02:46:54 436.795 FM
AO-27 01 Oct 02:47:14 02:51:21 23° 92° (E) 02:55:26 436.795 MHz FM
AO-Echo 01 Oct 02:48:32 02:52:48 27° 94° (E) 02:57:09 ?
UOSAT-12 01 Oct 03:07:37 03:09:56 13° 10° (N) 03:12:15 437.025 FM, 437.400 FM
Gurwin Techsat 1B 01 Oct 03:11:35 03:15:25 20° 90° (E) 03:19:14 435.225 FM
JAS-1B 01 Oct 03:20:40 03:26:14 53° 101° (E) 03:32:06 435.800 - 435.900 CW/SSB
RS-15 01 Oct 03:22:52 03:33:40 66° 120° (ESE) 03:44:25 29.354 - 29.394 USB, Beacon 29.352 USB
KITSAT 1 01 Oct 03:23:36 03:31:25 55° 243° (WSW) 03:39:11 435.175 FM
ISS 01 Oct 03:28:21 03:31:41 71° 14° (NNE) 03:35:01 145.800 FM
OPAL 01 Oct 03:29:35 03:32:35 16° 51° (NE) 03:35:35 ?
Oscar 19 01 Oct 03:36:03 03:41:11 69° 288° (WNW) 03:46:16 437.125 CW, 437.150 USB
TMSAT-1 01 Oct 03:39:56 03:44:19 26° 92° (E) 03:48:41 436.925 FM
ITAMSAT 1 01 Oct 03:47:30 03:52:45 70° 103° (ESE) 03:57:58 435.822 SSB
Uribyol 2 01 Oct 03:48:24 03:53:40 75° 104° (ESE) 03:58:54 436.500 FM
Oscar 16 01 Oct 04:17:33 04:22:06 32° 297° (WNW) 04:26:38 437.025 USB, Beacon 2401.1428
SO-50 01 Oct 04:19:28 04:24:17 86° 51° (NE) 04:29:10 436.795 FM
AO-27 01 Oct 04:26:06 04:31:14 58° 291° (WNW) 04:36:21 436.795 MHz FM
AO-Echo 01 Oct 04:27:00 04:31:45 46° 292° (WNW) 04:36:37 ?
AO-7 01 Oct 04:42:15 04:49:00 27° 92° (E) 04:55:42 29.400 - 29.500 MHz
UOSAT-12 01 Oct 04:47:30 04:51:38 28° 34° (NE) 04:55:43 437.025 FM, 437.400 FM
Gurwin Techsat 1B 01 Oct 04:50:36 04:55:54 68° 289° (WNW) 05:01:10 435.225 FM
ISS 01 Oct 05:05:13 05:08:15 33° 214° (SW) 05:11:16 145.800 FM
OPAL 01 Oct 05:05:28 05:10:41 79° 70° (ENE) 05:15:55 ?
JAS-1B 01 Oct 05:12:02 05:16:43 27° 301° (WNW) 05:21:31 435.800 - 435.900 CW/SSB
Oscar 19 01 Oct 05:17:22 05:19:37 13° 308° (NW) 05:21:52 437.125 CW, 437.150 USB
MaSat-1 01 Oct 05:17:32 05:20:01 14° 103° (ESE) 05:22:27 437.345 MHz
TMSAT-1 01 Oct 05:19:23 05:24:33 53° 291° (WNW) 05:29:41 436.925 FM
KITSAT 1 01 Oct 05:22:43 05:24:59 11° 264° (W) 05:27:15 435.175 FM
ITAMSAT 1 01 Oct 05:27:54 05:31:46 21° 302° (WNW) 05:35:37 435.822 SSB
Uribyol 2 01 Oct 05:28:53 05:32:36 20° 303° (WNW) 05:36:19 436.500 FM
RS-15 01 Oct 05:35:54 05:46:31 52° 327° (NNW) 05:57:14 29.354 - 29.394 USB, Beacon 29.352 USB
Uosat F 01 Oct 05:48:12 05:53:12 58° 101° (ESE) 05:58:10 435.120 FM
JAS-2 01 Oct 05:54:10 05:59:06 21° 89° (E) 06:04:23 435.800 - 435.900 CW/SSB, 435.910 FM
SO-50 01 Oct 06:01:16 06:04:16 17° 249° (WSW) 06:07:16 436.795 FM
AO-27 01 Oct 06:08:08 06:09:43 11° 310° (NW) 06:11:17 436.795 MHz FM
STRAND 1 01 Oct 06:08:19 06:12:29 26° 61° (ENE) 06:16:41 ?
UOSAT-12 01 Oct 06:27:28 06:32:10 66° 235° (SW) 06:36:48 437.025 FM, 437.400 FM
Gurwin Techsat 1B 01 Oct 06:32:30 06:34:56 13° 308° (NW) 06:37:22 435.225 FM
AO-7 01 Oct 06:34:21 06:42:40 81° 293° (WNW) 06:50:57 29.400 - 29.500 MHz
Hamsat 01 Oct 06:36:18 06:39:45 24° 93° (E) 06:43:10 145.90 MHz
OPAL 01 Oct 06:46:49 06:50:10 17° 269° (W) 06:53:31 ?
MaSat-1 01 Oct 06:51:06 06:55:58 90° 299° (WNW) 07:00:30 437.345 MHz
TMSAT-1 01 Oct 07:02:28 07:03:20 10° 311° (NW) 07:04:11 436.925 FM
Uosat F 01 Oct 07:27:41 07:31:38 24° 300° (WNW) 07:35:34 435.120 FM
JAS-2 01 Oct 07:38:13 07:44:45 85° 286° (WNW) 07:52:06 435.800 - 435.900 CW/SSB, 435.910 FM
STRAND 1 01 Oct 07:46:26 07:51:24 52° 260° (W) 07:56:25 ?
RS-15 01 Oct 07:52:06 08:01:54 35° 360° (N) 08:11:53 29.354 - 29.394 USB, Beacon 29.352 USB
Hamsat 01 Oct 08:11:56 08:15:51 38° 291° (WNW) 08:19:42 145.90 MHz
AO-7 01 Oct 08:28:04 08:34:21 25° 315° (NW) 08:40:39 29.400 - 29.500 MHz
MaSat-1 01 Oct 08:29:42 08:32:59 18° 318° (NW) 08:36:06 437.345 MHz
SO-67 01 Oct 08:42:39 08:46:08 83° 103° (ESE) 08:49:35 435.3500 MHz FM
HO-68 01 Oct 08:53:10 08:56:53 15° 84° (E) 09:00:35 435.675 MHz FM
PCSat 01 Oct 09:09:50 09:13:03 16° 105° (ESE) 09:16:17 145.825 MHz
JAS-2 01 Oct 09:24:32 09:29:08 21° 305° (NW) 09:34:06 435.800 - 435.900 CW/SSB, 435.910 FM
RS-15 01 Oct 10:06:38 10:17:20 51° 33° (NNE) 10:28:21 29.354 - 29.394 USB, Beacon 29.352 USB
Sapphire 01 Oct 10:24:54 10:30:10 56° 118° (ESE) 10:35:28 437.095 MHz 1200 baud AX-25 AFSK
Oscar 11 01 Oct 10:30:09 10:33:44 25° 93° (E) 10:37:17 145.825 FM, Beacon 2401.500 USB
HO-68 01 Oct 10:38:42 10:45:54 70° 105° (ESE) 10:53:04 435.675 MHz FM
PCSat 01 Oct 10:50:17 10:55:43 89° 125° (SE) 11:01:11 145.825 MHz
FUNcube-1 01 Oct 10:55:12 10:58:41 21° 91° (E) 11:02:05 145.950 - 145.970 MHz USB
UKube-1 01 Oct 10:59:26 11:03:45 56° 101° (ESE) 11:08:03 145.840 MHz, 145.915 MHz
ZACube-1 01 Oct 11:39:48 11:44:20 55° 100° (E) 11:48:44 437.345 MHz
Oscar 11 01 Oct 12:06:00 12:10:03 39° 292° (WNW) 12:14:04 145.825 FM, Beacon 2401.500 USB
Sapphire 01 Oct 12:09:00 12:13:53 33° 319° (NW) 12:18:48 437.095 MHz 1200 baud AX-25 AFSK
RS-15 01 Oct 12:19:23 12:30:20 69° 239° (WSW) 12:41:43 29.354 - 29.394 USB, Beacon 29.352 USB
Oscar 16 01 Oct 12:22:18 12:25:26 16° 55° (NE) 12:28:35 437.025 USB, Beacon 2401.1428
JAS-1B 01 Oct 12:23:07 12:26:58 16° 52° (NE) 12:30:33 435.800 - 435.900 CW/SSB
HO-68 01 Oct 12:27:03 12:33:07 31° 305° (NW) 12:39:10 435.675 MHz FM
FUNcube-1 01 Oct 12:30:55 12:35:22 50° 290° (WNW) 12:39:42 145.950 - 145.970 MHz USB
PCSat 01 Oct 12:35:28 12:39:51 24° 326° (NW) 12:44:16 145.825 MHz
UKube-1 01 Oct 12:36:27 12:39:35 20° 300° (WNW) 12:42:43 145.840 MHz, 145.915 MHz
ZACube-1 01 Oct 13:16:56 13:20:22 21° 299° (WNW) 13:23:45 437.345 MHz
Oscar 19 01 Oct 13:18:10 13:23:00 41° 66° (ENE) 13:27:51 437.125 CW, 437.150 USB
TMSAT-1 01 Oct 13:29:16 13:30:51 11° 50° (NE) 13:32:27 436.925 FM
ITAMSAT 1 01 Oct 13:31:35 13:35:49 26° 60° (ENE) 13:40:05 435.822 SSB
Uribyol 2 01 Oct 13:32:13 13:36:34 28° 61° (ENE) 13:40:56 436.500 FM
Saudisat 1A 01 Oct 13:38:55 13:39:40 10° 108° (ESE) 13:40:25 436.775 MHz
Sapphire 01 Oct 13:56:20 13:59:02 14° 344° (NNW) 14:01:45 437.095 MHz 1200 baud AX-25 AFSK
AO-7 01 Oct 13:57:27 14:02:18 17° 37° (NE) 14:07:09 29.400 - 29.500 MHz
Oscar 16 01 Oct 13:58:52 14:04:05 88° 74° (ENE) 14:09:19 437.025 USB, Beacon 2401.1428
AO-Echo 01 Oct 14:05:40 14:10:12 51° 69° (ENE) 14:14:49 ?
AO-27 01 Oct 14:09:10 14:14:10 51° 68° (ENE) 14:19:12 436.795 MHz FM
JAS-1B 01 Oct 14:09:31 14:16:50 72° 71° (ENE) 14:23:01 435.800 - 435.900 CW/SSB
PCSat 01 Oct 14:23:16 14:25:20 12° 352° (N) 14:27:24 145.825 MHz
RS-15 01 Oct 14:33:43 14:40:34 19° 263° (W) 14:47:36 29.354 - 29.394 USB, Beacon 29.352 USB
Gurwin Techsat 1B 01 Oct 14:36:22 14:41:23 45° 67° (ENE) 14:46:26 435.225 FM
Oscar 19 01 Oct 14:57:48 15:02:26 32° 265° (W) 15:07:06 437.125 CW, 437.150 USB
MaSat-1 01 Oct 15:02:40 15:06:13 52° 54° (NE) 15:09:15 437.345 MHz
TMSAT-1 01 Oct 15:04:32 15:09:43 58° 70° (ENE) 15:14:55 436.925 FM
ITAMSAT 1 01 Oct 15:09:58 15:15:01 54° 260° (W) 15:20:08 435.822 SSB
Uribyol 2 01 Oct 15:10:46 15:15:48 50° 260° (W) 15:20:53 436.500 FM
Saudisat 1A 01 Oct 15:14:03 15:18:26 73° 127° (SE) 15:22:51 436.775 MHz
Uosat F 01 Oct 15:28:40 15:32:17 21° 58° (ENE) 15:35:56 435.120 FM
Oscar 16 01 Oct 15:41:19 15:44:09 15° 273° (W) 15:46:59 437.025 USB, Beacon 2401.1428
Oscar 10/S400 01 Oct 15:42:37 15:56:50 24° 146° (SE) 16:15:56 145.825 - 145.975 CW/USB, Beacon 145.810 USB
Sapphire 01 Oct 15:42:41 15:44:58 12° 11° (N) 15:47:14 437.095 MHz 1200 baud AX-25 AFSK
AO-7 01 Oct 15:45:23 15:53:20 53° 60° (ENE) 16:01:17 29.400 - 29.500 MHz
AO-Echo 01 Oct 15:45:42 15:49:18 22° 268° (W) 15:52:58 ?
AO-27 01 Oct 15:49:42 15:53:58 26° 267° (W) 15:58:16 436.795 MHz FM
JAS-1B 01 Oct 16:02:17 16:07:56 24° 267° (W) 16:12:59 435.800 - 435.900 CW/SSB
KITSAT 1 01 Oct 16:05:46 16:09:31 14° 98° (E) 16:13:15 435.175 FM
PCSat 01 Oct 16:08:16 16:11:13 15° 19° (NNE) 16:14:11 145.825 MHz
JAS-2 01 Oct 16:14:43 16:16:49 12° 48° (NE) 16:18:59 435.800 - 435.900 CW/SSB, 435.910 FM
Gurwin Techsat 1B 01 Oct 16:16:55 16:21:32 30° 266° (W) 16:26:11 435.225 FM
MaSat-1 01 Oct 16:40:45 16:42:00 12° 258° (WSW) 16:43:12 437.345 MHz
TMSAT-1 01 Oct 16:45:50 16:50:01 23° 269° (W) 16:54:13 436.925 FM
Saudisat 1A 01 Oct 16:54:49 16:58:27 24° 327° (NNW) 17:02:07 436.775 MHz
Uosat F 01 Oct 17:05:38 17:10:36 68° 257° (WSW) 17:15:38 435.120 FM
OPAL 01 Oct 17:13:05 17:15:43 14° 89° (E) 17:18:19 ?
